User: anonymous   Login
Location: Unspecified
(0.0000°N, 0.0000°E)
Time: 19:15:03
(UTC+00:00)
Language:

STARLINK-6053 - Orbit

View from above orbital plane
View from above orbital plane
View from above satellite
View from above satellite

Ground track
Ground track

The orbit is defined by the following mean orbital elements,

1 56466U          26145.42567969 +.00000000 +00000-0 +69112-4 0 00009
2 56466  69.9993 310.8423 0003041 272.3346  87.7465 14.98340694    05
Epoch (UTC): 25 May 2026 10:12:58
Eccentricity: 0.0003041
inclination: 69.9993°
perigee height: 570 km
apogee height: 574 km
right ascension of ascending node: 310.8423°
argument of perigee: 272.3346°
revolutions per day: 14.98340694
mean anomaly at epoch: 87.7465°

The dashed part of the orbit path shows where the satellite is in the earth's shadow,  

DLR